Livingston, MT

6:09 AM MDT on August 19, 2017 (GMT -0600)
Mission

Weather History for KLVM - September, 2013

Change the Weather History Date:

Friday, September 27, 2013

  Actual Average Record
Temperature  
Mean Temperature 45 °F 51 °F  
Max Temperature 54 °F 67 °F 88 °F (2011)
Min Temperature 36 °F 36 °F 19 °F (1961)
Degree Days  
Heating Degree Days 20 14  
Month to date heating degree days 141 247  
Since 1 July heating degree days 141 365  
Cooling Degree Days 0 0  
Month to date cooling degree days 56 13  
Year to date cooling degree days 495 228  
Moisture  
Dew Point 31 °F    
Average Humidity 64    
Maximum Humidity 92    
Minimum Humidity 35    
Precipitation  
Precipitation 0.02 in 0.04 in 0.74 in (1982)
Month to date precipitation 2.09 1.08  
Year to date precipitation 9.61 12.31  
Sea Level Pressure  
Sea Level Pressure 29.98 in    
Wind  
Wind Speed 13 mph (West)    
Max Wind Speed 29 mph    
Max Gust Speed 38 mph    
Visibility 10 miles    
Events Rain    
T = Trace of Precipitation, MM = Missing Value Source: NWS Daily Summary

Daily Weather History Graph

Daily Weather History Graph

Search for Another Location

Airport or City:

Trip Planner

Search our weather history database for the weather conditions in past years. The results will help you decide how hot, cold, wet, or windy it might be!

Date:

Astronomy

Sep. 27, 2013 Rise Set
Actual Time 7:15 AM MDT 7:09 PM MDT
Civil Twilight 6:45 AM MDT 7:38 PM MDT
Nautical Twilight 6:11 AM MDT 8:13 PM MDT
Astronomical Twilight 5:35 AM MDT 8:48 PM MDT
Moon No Moon Rise 3:05 PM MDT (9/27)
Length of Visible Light 12h 52m
Length of Day
11h 53m
Last Quarter, 44% of the Moon is Illuminated
Sep 27
Last Quarter
Oct 4
New
Oct 11
First Quarter
Oct 18
Full
Oct 26
Last Quarter

Hourly Weather History & Observations

Time (MDT) Temp. Windchill Dew Point Humidity Pressure Visibility Wind Dir Wind Speed Gust Speed Precip Events Conditions
12:53 AM 39.0 °F 35.7 °F 33.1 °F 79% 30.01 in 10.0 mi North 4.6 mph - N/A   Overcast
1:53 AM 39.0 °F - 34.0 °F 82% 30.02 in 10.0 mi Calm Calm - 0.00 in   Overcast
2:53 AM 37.9 °F 35.5 °F 33.1 °F 83% 30.01 in 10.0 mi North 3.5 mph - N/A   Overcast
3:26 AM 39.2 °F - 33.8 °F 81% 29.98 in 10.0 mi Calm Calm - 0.00 in Rain Light Rain
3:53 AM 37.9 °F - 32.0 °F 79% 30.02 in 10.0 mi Calm Calm - 0.00 in Rain Light Rain
4:15 AM 37.4 °F - 32.0 °F 81% 29.99 in 8.0 mi Calm Calm - 0.01 in Rain Light Rain
4:53 AM 37.0 °F - 33.1 °F 86% 30.02 in 10.0 mi Calm Calm - 0.01 in   Overcast
5:14 AM 37.4 °F - 33.8 °F 87% 29.98 in 10.0 mi Calm Calm - 0.00 in   Overcast
5:53 AM 36.0 °F - 33.1 °F 89% 30.02 in 10.0 mi Calm Calm - 0.00 in   Overcast
6:53 AM 36.0 °F - 33.1 °F 89% 30.04 in 10.0 mi Calm Calm - 0.01 in Rain Light Rain
7:13 AM 35.6 °F - 33.8 °F 93% 29.99 in 10.0 mi Calm Calm - 0.00 in   Overcast
7:53 AM 37.0 °F - 33.1 °F 86% 30.03 in 10.0 mi Calm Calm - 0.00 in   Overcast
8:53 AM 37.9 °F 32.7 °F 34.0 °F 86% 30.01 in 10.0 mi West 6.9 mph - N/A   Mostly Cloudy
9:48 AM 41.0 °F 33.1 °F 35.6 °F 81% 29.99 in 10.0 mi West 15.0 mph - N/A   Overcast
9:53 AM 41.0 °F 36.4 °F 35.1 °F 79% 30.02 in 10.0 mi NW 6.9 mph - N/A   Overcast
10:13 AM 41.0 °F 35.8 °F 35.6 °F 81% 29.99 in 10.0 mi WNW 8.1 mph - N/A   Mostly Cloudy
10:38 AM 42.8 °F 34.8 °F 33.8 °F 70% 29.98 in 10.0 mi WSW 17.3 mph - N/A   Mostly Cloudy
10:53 AM 42.1 °F 33.9 °F 33.1 °F 70% 30.00 in 10.0 mi WSW 17.3 mph - N/A   Partly Cloudy
11:53 AM 48.0 °F - 32.0 °F 54% 29.97 in 10.0 mi WSW 21.9 mph 25.3 mph N/A   Mostly Cloudy
12:53 PM 46.9 °F - 30.0 °F 52% 29.96 in 10.0 mi West 18.4 mph 25.3 mph N/A   Overcast
1:53 PM 48.0 °F - 26.1 °F 42% 29.94 in 10.0 mi WSW 24.2 mph 29.9 mph N/A   Overcast
2:53 PM 53.1 °F - 27.0 °F 37% 29.92 in 10.0 mi WSW 21.9 mph - N/A   Scattered Clouds
3:53 PM 52.0 °F - 26.1 °F 37% 29.93 in 10.0 mi West 25.3 mph 28.8 mph N/A   Mostly Cloudy
4:53 PM 50.0 °F - 26.1 °F 39% 29.94 in 10.0 mi WSW 23.0 mph 29.9 mph N/A   Mostly Cloudy
5:53 PM 51.1 °F - 26.1 °F 38% 29.94 in 10.0 mi WSW 19.6 mph 27.6 mph N/A   Mostly Cloudy
6:53 PM 46.9 °F - 28.0 °F 48% 29.96 in 10.0 mi WSW 15.0 mph - N/A   Partly Cloudy
7:53 PM 46.0 °F 41.0 °F 28.9 °F 51% 29.96 in 10.0 mi West 10.4 mph - N/A   Overcast
8:53 PM 46.0 °F 40.6 °F 28.9 °F 51% 29.97 in 10.0 mi West 11.5 mph - N/A   Overcast
9:53 PM 46.0 °F 39.3 °F 27.0 °F 47% 29.95 in 10.0 mi WSW 16.1 mph - N/A   Partly Cloudy
10:53 PM 46.9 °F - 26.1 °F 44% 29.94 in 10.0 mi West 18.4 mph - N/A   Scattered Clouds
11:53 PM 46.0 °F 39.6 °F 28.0 °F 50% 29.92 in 10.0 mi WSW 15.0 mph - N/A   Overcast